SV1JSO-13 Weather Reports


Display with metric or nautical units.
time (UTC)temp
F
wind
direction
speed
MPH
gust
MPH
rain 1hr
in
rain 24hr
in
rain mn
in
humidity
%
barometer
mb
20260906101500 87 245 3.0 4.0 0.00 0.00 0.00 47 1011.3
20260906101000 87 290 6.0 7.0 0.00 0.00 0.00 44 1011.4
20260906100500 87 278 5.0 6.0 0.00 0.00 0.00 40 1011.3
20260906100000 88 245 4.0 5.0 0.00 0.00 0.00 36 1011.3
20260906095500 88 262 6.0 6.0 0.00 0.00 0.00 41 1011.2
20260906095000 88 279 3.0 4.0 0.00 0.00 0.00 42 1011.3
20260906094500 89 284 2.0 4.0 0.00 0.00 0.00 40 1011.4
20260906094000 88 333 1.0 2.0 0.00 0.00 0.00 43 1011.4
20260906093500 88 185 4.0 6.0 0.00 0.00 0.00 40 1011.5
20260906093000 87 248 4.0 4.0 0.00 0.00 0.00 42 1011.4
20260906092500 86 294 5.0 6.0 0.00 0.00 0.00 41 1011.5
20260906092000 86 253 5.0 6.0 0.00 0.00 0.00 47 1011.5
20260906091500 87 265 6.0 6.0 0.00 0.00 0.00 45 1011.6
20260906091000 87 258 4.0 6.0 0.00 0.00 0.00 45 1011.7
20260906090500 86 297 2.0 3.0 0.00 0.00 0.00 46 1011.8
20260906090000 87 245 5.0 6.0 0.00 0.00 0.00 45 1011.7
20260906085500 86 229 2.0 2.0 0.00 0.00 0.00 44 1011.8
20260906085001 85 242 5.0 5.0 0.00 0.00 0.00 51 1011.8
20260906084500 86 279 5.0 6.0 0.00 0.00 0.00 47 1011.8
20260906084000 86 190 2.0 5.0 0.00 0.00 0.00 47 1011.7
20260906083501 86 220 5.0 6.0 0.00 0.00 0.00 38 1011.6
20260906083001 86 250 2.0 7.0 0.00 0.00 0.00 42 1011.6
20260906082501 86 215 4.0 5.0 0.00 0.00 0.00 38 1011.7
20260906082001 86 260 6.0 6.0 0.00 0.00 0.00 42 1011.7
20260906081500 85 327 5.0 5.0 0.00 0.00 0.00 40 1011.7
20260906081001 85 196 0.0 3.0 0.00 0.00 0.00 40 1011.8
20260906080501 85 231 4.0 5.0 0.00 0.00 0.00 40 1011.7
20260906080000 86 203 3.0 5.0 0.00 0.00 0.00 39 1011.8
20260906075500 85 241 2.0 3.0 0.00 0.00 0.00 42 1011.7
20260906075000 85 251 3.0 5.0 0.00 0.00 0.00 37 1011.7
20260906074500 84 268 2.0 3.0 0.00 0.00 0.00 37 1011.7
20260906074001 84 271 4.0 6.0 0.00 0.00 0.00 37 1011.6
20260906073501 84 272 4.0 6.0 0.00 0.00 0.00 43 1011.6
20260906073000 85 217 4.0 5.0 0.00 0.00 0.00 39 1011.6
20260906072500 85 277 3.0 4.0 0.00 0.00 0.00 37 1011.6
20260906072001 84 216 3.0 4.0 0.00 0.00 0.00 40 1011.5
20260906071501 85 200 4.0 6.0 0.00 0.00 0.00 41 1011.4
20260906071001 86 267 3.0 4.0 0.00 0.00 0.00 38 1011.5
20260906070501 86 248 2.0 2.0 0.00 0.00 0.00 36 1011.3
20260906070001 85 252 3.0 4.0 0.00 0.00 0.00 36 1011.3
20260906065501 87 249 3.0 5.0 0.00 0.00 0.00 34 1011.3
20260906065001 88 251 2.0 2.0 0.00 0.00 0.00 33 1011.2
20260906064501 88 212 0.0 1.0 0.00 0.00 0.00 30 1011.1
20260906064000 88 224 0.0 0.0 0.00 0.00 0.00 29 1011.1
20260906063500 87 164 0.0 1.0 0.00 0.00 0.00 30 1011.0
20260906063001 87 100 1.0 1.0 0.00 0.00 0.00 30 1011.0
20260906062501 87 62 0.0 1.0 0.00 0.00 0.00 30 1010.9
20260906062000 85 13 2.0 2.0 0.00 0.00 0.00 31 1010.7
20260906061501 85 8 0.0 1.0 0.00 0.00 0.00 31 1010.7
20260906061001 85 287 1.0 2.0 0.00 0.00 0.00 32 1010.8
20260906060501 85 230 2.0 2.0 0.00 0.00 0.00 31 1010.7
20260906060000 85 231 0.0 1.0 0.00 0.00 0.00 31 1010.6
20260906055501 84 278 1.0 2.0 0.00 0.00 0.00 30 1010.5
20260906055000 84 219 1.0 1.0 0.00 0.00 0.00 30 1010.5
20260906054500 83 255 0.0 0.0 0.00 0.00 0.00 31 1010.5
20260906054000 83 114 0.0 1.0 0.00 0.00 0.00 31 1010.4
20260906053500 82 210 4.0 4.0 0.00 0.00 0.00 31 1010.5
20260906053000 82 227 2.0 3.0 0.00 0.00 0.00 32 1010.4
20260906052501 82 211 2.0 2.0 0.00 0.00 0.00 32 1010.4
20260906052001 83 177 2.0 3.0 0.00 0.00 0.00 30 1010.4
20260906051501 82 196 2.0 4.0 0.00 0.00 0.00 31 1010.3
20260906051000 80 8 0.0 0.0 0.00 0.00 0.00 31 1010.3
20260906050500 80 35 2.0 2.0 0.00 0.00 0.00 31 1010.3
20260906050001 80 100 2.0 3.0 0.00 0.00 0.00 31 1010.4
20260906045500 80 131 2.0 2.0 0.00 0.00 0.00 30 1010.3
20260906045001 80 24 2.0 2.0 0.00 0.00 0.00 31 1010.3
20260906044500 78 113 0.0 0.0 0.00 0.00 0.00 31 1010.2
20260906044001 78 250 1.0 2.0 0.00 0.00 0.00 33 1010.3
20260906043501 78 265 1.0 2.0 0.00 0.00 0.00 32 1010.2
20260906043000 78 229 1.0 1.0 0.00 0.00 0.00 32 1010.0
20260906042501 78 257 2.0 3.0 0.00 0.00 0.00 33 1010.0
20260906042000 78 209 3.0 3.0 0.00 0.00 0.00 32 1009.9
20260906041500 78 201 3.0 4.0 0.00 0.00 0.00 33 1010.0
20260906041001 78 194 3.0 3.0 0.00 0.00 0.00 33 1009.8
20260906040500 78 208 3.0 3.0 0.00 0.00 0.00 33 1009.9
20260906040001 78 229 4.0 5.0 0.00 0.00 0.00 33 1009.9
20260906035501 78 203 2.0 3.0 0.00 0.00 0.00 33 1009.8
20260906035000 78 277 5.0 6.0 0.00 0.00 0.00 34 1009.8
20260906034500 78 246 3.0 4.0 0.00 0.00 0.00 32 1009.7
20260906034000 79 236 4.0 5.0 0.00 0.00 0.00 32 1009.7
20260906033501 80 289 2.0 3.0 0.00 0.00 0.00 32 1009.7
20260906033000 79 278 3.0 3.0 0.00 0.00 0.00 32 1009.6
20260906032500 78 355 2.0 5.0 0.00 0.00 0.00 31 1009.6
20260906032001 78 251 2.0 3.0 0.00 0.00 0.00 30 1009.6
20260906031501 79 305 1.0 2.0 0.00 0.00 0.00 30 1009.6
20260906031000 79 345 0.0 1.0 0.00 0.00 0.00 29 1009.7
20260906030500 79 282 1.0 1.0 0.00 0.00 0.00 29 1009.6
20260906030001 78 184 2.0 2.0 0.00 0.00 0.00 30 1009.5
20260906025501 78 178 2.0 3.0 0.00 0.00 0.00 30 1009.4
20260906025001 78 209 3.0 4.0 0.00 0.00 0.00 31 1009.5
20260906024500 78 187 3.0 3.0 0.00 0.00 0.00 32 1009.2
20260906024001 79 237 4.0 4.0 0.00 0.00 0.00 31 1009.2
20260906023501 79 317 4.0 4.0 0.00 0.00 0.00 31 1009.3
20260906023001 78 253 1.0 2.0 0.00 0.00 0.00 31 1009.3
20260906022501 78 330 0.0 2.0 0.00 0.00 0.00 31 1009.4
20260906022001 78 337 2.0 4.0 0.00 0.00 0.00 31 1009.4
20260906021501 79 6 3.0 3.0 0.00 0.00 0.00 32 1009.4
20260906021001 79 279 1.0 2.0 0.00 0.00 0.00 32 1009.3
20260906020501 79 20 1.0 2.0 0.00 0.00 0.00 32 1009.3
20260906020000 79 342 0.0 2.0 0.00 0.00 0.00 32 1009.3
20260906015501 79 339 0.0 2.0 0.00 0.00 0.00 32 1009.2
20260906015001 79 66 0.0 2.0 0.00 0.00 0.00 32 1009.4
20260906014501 79 269 0.0 1.0 0.00 0.00 0.00 32 1009.4
20260906014001 79 135 0.0 0.0 0.00 0.00 0.00 32 1009.3
20260906013500 79 126 2.0 2.0 0.00 0.00 0.00 31 1009.5
20260906013001 79 303 0.0 1.0 0.00 0.00 0.00 31 1009.5
20260906012500 79 4 1.0 1.0 0.00 0.00 0.00 32 1009.5
20260906012001 79 102 0.0 0.0 0.00 0.00 0.00 32 1009.6
20260906011500 79 119 0.0 0.0 0.00 0.00 0.00 33 1009.6
20260906011000 79 19 0.0 1.0 0.00 0.00 0.00 34 1009.6
20260906010501 80 251 0.0 1.0 0.00 0.00 0.00 34 1009.6
20260906010000 79 113 0.0 0.0 0.00 0.00 0.00 34 1009.7
20260906005500 79 133 2.0 2.0 0.00 0.00 0.00 37 1009.6
20260906005001 80 87 2.0 2.0 0.00 0.00 0.00 39 1009.6
20260906004501 80 56 0.0 1.0 0.00 0.00 0.00 41 1009.7
20260906004001 80 48 0.0 2.0 0.00 0.00 0.00 40 1009.8
20260906003501 80 18 1.0 1.0 0.00 0.00 0.00 41 1009.7
20260906003000 79 137 1.0 1.0 0.00 0.00 0.00 40 1009.7
20260906002501 79 294 1.0 2.0 0.00 0.00 0.00 40 1009.7
20260906002001 80 341 0.0 1.0 0.00 0.00 0.00 34 1009.6
20260906001501 80 16 0.0 2.0 0.00 0.00 0.00 34 1009.7
20260906001001 79 12 2.0 2.0 0.00 0.00 0.00 37 1009.6
20260906000500 79 300 2.0 2.0 0.00 0.00 0.00 37 1009.7
20260906000000 79 260 2.0 4.0 0.00 0.00 0.00 38 1009.8
20260905235501 81 259 2.0 2.0 0.00 0.00 0.00 32 1009.7
20260905235000 80 334 0.0 1.0 0.00 0.00 0.00 32 1009.7
20260905234500 81 258 1.0 2.0 0.00 0.00 0.00 31 1009.7
20260905234000 81 219 0.0 0.0 0.00 0.00 0.00 30 1009.8
20260905233500 81 309 0.0 0.0 0.00 0.00 0.00 30 1009.9
20260905233000 80 71 0.0 2.0 0.00 0.00 0.00 35 1009.9
20260905232500 80 25 0.0 0.0 0.00 0.00 0.00 37 1009.9
20260905232001 81 333 0.0 0.0 0.00 0.00 0.00 36 1010.0
20260905231500 80 333 0.0 0.0 0.00 0.00 0.00 36 1010.1
20260905231001 80 129 0.0 0.0 0.00 0.00 0.00 36 1010.1
20260905230501 80 114 0.0 1.0 0.00 0.00 0.00 38 1010.1
20260905230000 80 242 0.0 0.0 0.00 0.00 0.00 38 1010.2
20260905225500 80 44 0.0 0.0 0.00 0.00 0.00 38 1010.2
20260905225001 80 304 0.0 0.0 0.00 0.00 0.00 38 1010.2
20260905224501 80 55 0.0 0.0 0.00 0.00 0.00 38 1010.3
20260905224001 80 58 1.0 2.0 0.00 0.00 0.00 39 1010.3
20260905223501 80 224 0.0 0.0 0.00 0.00 0.00 39 1010.3
20260905223000 80 247 2.0 2.0 0.00 0.00 0.00 39 1010.4
20260905222501 81 196 3.0 3.0 0.00 0.00 0.00 38 1010.4
20260905222001 81 195 3.0 3.0 0.00 0.00 0.00 34 1010.4
20260905221500 81 201 1.0 2.0 0.00 0.00 0.00 31 1010.4
20260905221000 82 207 3.0 4.0 0.00 0.00 0.00 32 1010.4
20260905220500 82 142 0.0 0.0 0.00 0.00 0.00 30 1010.3
20260905220000 82 142 0.0 0.0 0.00 0.00 0.00 30 1010.3
20260905215500 82 154 0.0 0.0 0.00 0.00 0.00 30 1010.3
20260905215001 82 322 0.0 0.0 0.00 0.00 0.00 31 1010.4
20260905214501 82 228 0.0 0.0 0.00 0.00 0.00 30 1010.3
20260905214000 82 121 0.0 2.0 0.00 0.00 0.00 30 1010.5
20260905213500 82 332 2.0 2.0 0.00 0.00 0.00 30 1010.4
20260905213001 82 324 1.0 1.0 0.00 0.00 0.00 30 1010.5
20260905212501 82 12 1.0 1.0 0.00 0.00 0.00 31 1010.4
20260905212000 82 12 2.0 2.0 0.00 0.00 0.00 31 1010.5
20260905211500 82 19 2.0 2.0 0.00 0.00 0.00 31 1010.6
20260905211001 83 334 2.0 2.0 0.00 0.00 0.00 31 1010.5
20260905210500 83 44 0.0 0.0 0.00 0.00 0.00 31 1010.5
20260905210000 83 60 2.0 2.0 0.00 0.00 0.00 31 1010.5
20260905205500 82 329 1.0 2.0 0.00 0.00 0.00 31 1010.6
20260905205000 82 65 2.0 2.0 0.00 0.00 0.00 31 1010.6
20260905204501 82 105 3.0 3.0 0.00 0.00 0.00 31 1010.5
20260905204001 83 113 4.0 4.0 0.00 0.00 0.00 30 1010.4
20260905203500 83 99 3.0 4.0 0.00 0.00 0.00 30 1010.4
20260905203001 83 74 2.0 3.0 0.00 0.00 0.00 31 1010.4
20260905202501 83 74 1.0 1.0 0.00 0.00 0.00 33 1010.4
20260905202001 83 96 2.0 3.0 0.00 0.00 0.00 34 1010.4
20260905201501 82 123 1.0 2.0 0.00 0.00 0.00 34 1010.4
20260905201000 82 148 2.0 2.0 0.00 0.00 0.00 35 1010.4
20260905200500 83 162 1.0 1.0 0.00 0.00 0.00 35 1010.4
20260905200001 83 143 1.0 1.0 0.00 0.00 0.00 35 1010.4
20260905195501 83 0 2.0 2.0 0.00 0.00 0.00 34 1010.3
20260905195001 83 17 2.0 2.0 0.00 0.00 0.00 33 1010.4
20260905194501 83 283 2.0 3.0 0.00 0.00 0.00 32 1010.4
20260905194001 83 333 2.0 2.0 0.00 0.00 0.00 31 1010.5
20260905193500 83 323 1.0 1.0 0.00 0.00 0.00 31 1010.5
20260905193000 83 150 5.0 5.0 0.00 0.00 0.00 31 1010.5
20260905192500 84 141 6.0 7.0 0.00 0.00 0.00 31 1010.4
20260905192001 84 133 4.0 4.0 0.00 0.00 0.00 30 1010.5
20260905191501 84 100 2.0 2.0 0.00 0.00 0.00 30 1010.6
20260905191000 84 48 2.0 3.0 0.00 0.00 0.00 30 1010.6
20260905190501 85 49 3.0 4.0 0.00 0.00 0.00 29 1010.6
20260905190001 85 119 2.0 3.0 0.00 0.00 0.00 29 1010.5
20260905185500 85 336 2.0 2.0 0.00 0.00 0.00 28 1010.6
20260905185001 85 253 2.0 2.0 0.00 0.00 0.00 28 1010.5
20260905184501 85 272 2.0 3.0 0.00 0.00 0.00 28 1010.4
20260905184001 85 275 2.0 3.0 0.00 0.00 0.00 28 1010.3
20260905183501 85 283 2.0 5.0 0.00 0.00 0.00 27 1010.3
20260905183001 86 263 2.0 2.0 0.00 0.00 0.00 27 1010.3
20260905182500 86 327 4.0 4.0 0.00 0.00 0.00 26 1010.3
20260905182001 86 263 2.0 4.0 0.00 0.00 0.00 25 1010.3
20260905181501 86 295 5.0 5.0 0.00 0.00 0.00 25 1010.2
20260905181000 87 28 3.0 3.0 0.00 0.00 0.00 25 1010.1
20260905180501 87 327 4.0 7.0 0.00 0.00 0.00 25 1010.1
20260905180001 87 22 6.0 7.0 0.00 0.00 0.00 25 1010.1
20260905175500 87 1 3.0 3.0 0.00 0.00 0.00 26 1010.0
20260905175000 87 291 0.0 2.0 0.00 0.00 0.00 26 1010.0
20260905174500 87 93 3.0 3.0 0.00 0.00 0.00 26 1010.0
20260905174001 87 0 3.0 4.0 0.00 0.00 0.00 26 1010.0
20260905173501 87 299 1.0 1.0 0.00 0.00 0.00 26 1010.0
20260905173000 87 28 4.0 4.0 0.00 0.00 0.00 26 1010.0
20260905172501 87 55 0.0 2.0 0.00 0.00 0.00 26 1009.9
20260905172000 87 0 3.0 3.0 0.00 0.00 0.00 27 1009.7
20260905171500 87 56 3.0 4.0 0.00 0.00 0.00 27 1009.7
20260905171000 87 47 0.0 2.0 0.00 0.00 0.00 27 1009.6
20260905170501 87 42 4.0 5.0 0.00 0.00 0.00 27 1009.5
20260905170001 87 56 5.0 8.0 0.00 0.00 0.00 27 1009.7
20260905165501 87 62 5.0 8.0 0.00 0.00 0.00 27 1009.6
20260905165001 88 132 1.0 4.0 0.00 0.00 0.00 27 1009.5
20260905164501 88 37 1.0 2.0 0.00 0.00 0.00 28 1009.6
20260905164001 88 87 3.0 4.0 0.00 0.00 0.00 29 1009.6
20260905163500 88 62 4.0 6.0 0.00 0.00 0.00 28 1009.6
20260905163001 89 54 4.0 5.0 0.00 0.00 0.00 26 1009.5
20260905162501 89 81 2.0 3.0 0.00 0.00 0.00 26 1009.5
20260905162001 89 9 7.0 9.0 0.00 0.00 0.00 25 1009.7
20260905161501 89 1 13.0 13.0 0.00 0.00 0.00 25 1009.7
20260905161001 89 0 6.0 6.0 0.00 0.00 0.00 25 1009.7
20260905160500 89 57 4.0 7.0 0.00 0.00 0.00 25 1009.7
20260905160000 89 21 5.0 8.0 0.00 0.00 0.00 25 1009.7
20260905155500 90 43 5.0 5.0 0.00 0.00 0.00 25 1009.7
20260905155001 90 71 3.0 4.0 0.00 0.00 0.00 26 1009.7
20260905154515 90 358 9.0 10.0 0.00 0.00 0.00 25 1009.7
20260905154001 90 11 9.0 9.0 0.00 0.00 0.00 25 1009.8
20260905153501 90 357 3.0 5.0 0.00 0.00 0.00 25 1009.8
20260905153000 90 54 6.0 7.0 0.00 0.00 0.00 25 1009.7
20260905152500 90 339 2.0 3.0 0.00 0.00 0.00 25 1009.7
20260905152001 90 358 8.0 8.0 0.00 0.00 0.00 25 1009.8
20260905151501 90 37 3.0 6.0 0.00 0.00 0.00 25 1009.8
20260905151000 90 30 7.0 8.0 0.00 0.00 0.00 25 1009.7
20260905150500 90 5 4.0 6.0 0.00 0.00 0.00 26 1009.8
20260905150001 90 0 7.0 13.0 0.00 0.00 0.00 26 1009.6
20260905145500 91 5 5.0 7.0 0.00 0.00 0.00 26 1009.7
20260905145000 90 38 5.0 6.0 0.00 0.00 0.00 26 1009.6
20260905144501 91 358 6.0 8.0 0.00 0.00 0.00 27 1009.6
20260905144000 90 341 3.0 5.0 0.00 0.00 0.00 27 1009.5
20260905143501 91 336 8.0 9.0 0.00 0.00 0.00 26 1009.6
20260905143001 91 343 5.0 6.0 0.00 0.00 0.00 27 1009.5
20260905142501 90 46 8.0 11.0 0.00 0.00 0.00 26 1009.5
20260905142001 91 56 5.0 6.0 0.00 0.00 0.00 26 1009.5
20260905141500 91 27 7.0 9.0 0.00 0.00 0.00 27 1009.5
20260905141001 90 11 10.0 15.0 0.00 0.00 0.00 27 1009.5
20260905140501 90 321 4.0 4.0 0.00 0.00 0.00 27 1009.4
20260905140000 90 5 3.0 7.0 0.00 0.00 0.00 27 1009.6
20260905135501 91 347 4.0 6.0 0.00 0.00 0.00 26 1009.4
20260905135001 91 3 4.0 7.0 0.00 0.00 0.00 27 1009.6
20260905134500 91 342 6.0 8.0 0.00 0.00 0.00 26 1009.6
20260905134001 92 343 8.0 9.0 0.00 0.00 0.00 26 1009.5
20260905133501 91 271 3.0 6.0 0.00 0.00 0.00 26 1009.7
20260905133001 91 6 3.0 10.0 0.00 0.00 0.00 26 1009.7
20260905132501 91 352 7.0 9.0 0.00 0.00 0.00 26 1009.7
20260905132001 91 301 9.0 9.0 0.00 0.00 0.00 26 1009.8
20260905131501 90 14 3.0 6.0 0.00 0.00 0.00 25 1009.6
20260905131001 91 4 4.0 6.0 0.00 0.00 0.00 25 1009.8
20260905130501 90 37 8.0 14.0 0.00 0.00 0.00 26 1009.9
20260905130001 90 16 6.0 10.0 0.00 0.00 0.00 26 1009.8
20260905125500 90 5 4.0 6.0 0.00 0.00 0.00 26 1009.9
20260905125001 91 24 8.0 12.0 0.00 0.00 0.00 25 1009.9
20260905124501 90 40 7.0 10.0 0.00 0.00 0.00 26 1009.9
20260905124000 91 32 10.0 11.0 0.00 0.00 0.00 26 1010.1
20260905123500 90 20 9.0 11.0 0.00 0.00 0.00 27 1009.9
20260905123001 90 349 6.0 9.0 0.00 0.00 0.00 27 1010.1
20260905122501 91 351 12.0 14.0 0.00 0.00 0.00 27 1010.0
20260905122000 90 50 8.0 9.0 0.00 0.00 0.00 27 1010.2
20260905121500 90 0 13.0 17.0 0.00 0.00 0.00 27 1010.1
20260905121001 90 15 7.0 9.0 0.00 0.00 0.00 27 1010.2
20260905120501 90 3 10.0 12.0 0.00 0.00 0.00 27 1010.3
20260905120001 90 10 7.0 11.0 0.00 0.00 0.00 27 1010.2
20260905115500 90 4 10.0 13.0 0.00 0.00 0.00 27 1010.3
20260905115000 90 16 11.0 12.0 0.00 0.00 0.00 26 1010.3
20260905114501 90 25 15.0 19.0 0.00 0.00 0.00 26 1010.3
20260905114000 89 13 4.0 9.0 0.00 0.00 0.00 27 1010.4
20260905113501 90 51 6.0 7.0 0.00 0.00 0.00 27 1010.4
20260905113001 90 29 9.0 11.0 0.00 0.00 0.00 27 1010.3
20260905112501 90 355 11.0 18.0 0.00 0.00 0.00 27 1010.3
20260905112000 89 353 9.0 13.0 0.00 0.00 0.00 27 1010.3
20260905111500 89 325 14.0 15.0 0.00 0.00 0.00 27 1010.3
20260905111001 89 345 7.0 13.0 0.00 0.00 0.00 27 1010.5
20260905110501 89 40 9.0 9.0 0.00 0.00 0.00 25 1010.4
20260905110001 89 353 4.0 5.0 0.00 0.00 0.00 26 1010.5
20260905105501 89 28 12.0 16.0 0.00 0.00 0.00 26 1010.6
20260905105000 89 335 12.0 15.0 0.00 0.00 0.00 25 1010.5
20260905104501 89 1 4.0 11.0 0.00 0.00 0.00 26 1010.6
20260905104001 89 340 10.0 12.0 0.00 0.00 0.00 26 1010.5
20260905103501 89 0 6.0 14.0 0.00 0.00 0.00 27 1010.5
20260905103000 89 359 11.0 14.0 0.00 0.00 0.00 27 1010.4
20260905102501 89 3 7.0 11.0 0.00 0.00 0.00 26 1010.5
20260905102001 88 4 10.0 13.0 0.00 0.00 0.00 27 1010.4